EW1337 Weather Reports


time (UTC)temp
F
wind
direction
speed
knots
gust
knots
rain 1hr
in
rain 24hr
in
rain mn
in
humidity
%
barometer
mb
20260507210010 53 0 0.0 3.5 0.05 1.17 1.18 99 1010.2
20260507205507 53 0 0.0 3.5 0.05 1.17 1.18 99 1010.2
20260507205007 53 0 0.0 1.7 0.05 1.17 1.18 99 1010.1
20260507204507 53 0 0.0 1.7 0.05 1.17 1.18 99 1009.8
20260507204007 53 0 0.0 3.5 0.05 1.17 1.18 99 1009.6
20260507203507 52 0 0.0 3.5 0.05 1.17 1.18 99 1009.4
20260507202507 52 0 0.0 3.5 0.00 1.14 1.14 99 1009.7
20260507201007 52 0 0.0 3.5 0.07 1.14 1.14 99 1009.6
20260507200010 52 0 0.0 5.2 0.07 1.14 1.14 99 1009.6
20260507195007 53 0 0.0 7.0 0.07 1.14 1.14 99 1009.4
20260507194507 53 0 0.0 7.0 0.07 1.14 1.14 99 1009.4
20260507194007 53 0 0.0 3.5 0.07 1.14 1.14 99 1009.6
20260507192007 54 0 0.0 3.5 0.07 1.14 1.14 99 1009.9
20260507191508 54 0 0.0 3.5 0.07 1.14 1.14 99 1010.2
20260507191007 54 0 0.0 3.5 0.01 1.06 1.06 99 1010.3
20260507190507 54 0 0.0 7.0 0.01 1.06 1.06 99 1010.6
20260507190011 54 0 0.0 7.0 0.01 1.06 1.06 99 1010.3
20260507185507 54 31 1.7 5.2 0.01 1.06 1.06 99 1010.6
20260507185007 54 0 0.0 5.2 0.02 1.06 1.06 99 1010.8
20260507184008 54 0 0.0 7.0 0.02 1.06 1.06 99 1010.6
20260507183507 54 17 1.7 5.2 0.05 1.06 1.06 99 1010.5
20260507183008 54 0 0.0 5.2 0.05 1.06 1.06 99 1010.3
20260507182507 54 0 0.0 7.0 0.05 1.06 1.06 99 1010.0
20260507182007 54 0 0.0 7.0 0.05 1.06 1.06 99 1009.7
20260507181507 54 0 0.0 7.0 0.06 1.06 1.06 99 1010.3
20260507181007 54 0 0.0 7.0 0.05 1.05 1.05 99 1010.1
20260507180010 54 0 0.0 5.2 0.05 1.05 1.05 99 1010.8
20260507175507 54 0 0.0 5.2 0.05 1.05 1.05 99 1011.1
20260507175007 54 0 0.0 5.2 0.02 1.04 1.03 99 1011.2
20260507174507 54 0 0.0 5.2 0.02 1.04 1.03 99 1011.5
20260507174007 54 0 0.0 5.2 0.05 1.04 1.03 99 1011.4
20260507173507 54 0 0.0 5.2 0.02 1.01 1.02 99 1011.3
20260507173008 54 0 0.0 3.5 0.02 1.01 1.02 99 1011.4
20260507172507 54 0 0.0 3.5 0.05 1.01 1.02 99 1011.6
20260507171507 54 0 0.0 5.2 0.07 1.00 1.00 99 1011.9
20260507170507 54 0 0.0 3.5 0.14 1.00 1.00 99 1011.7
20260507165507 54 0 0.0 5.2 0.24 1.00 1.00 99 1011.5
20260507165007 54 23 1.7 5.2 0.26 1.00 1.00 99 1011.5
20260507164507 54 0 0.0 7.0 0.30 1.00 1.00 99 1011.6
20260507163007 54 0 0.0 3.5 0.32 0.97 0.97 99 1011.7
20260507162507 53 0 0.0 8.7 0.35 0.97 0.97 99 1011.9
20260507162007 53 0 0.0 8.7 0.35 0.95 0.94 99 1011.4
20260507161007 54 0 0.0 7.0 0.34 0.90 0.90 100 1011.3
20260507160507 54 0 0.0 7.0 0.35 0.88 0.87 99 1011.1
20260507160011 54 0 0.0 5.2 0.32 0.81 0.81 100 1011.2
20260507155507 54 0 0.0 5.2 0.30 0.76 0.77 100 1011.8
20260507155007 54 0 0.0 5.2 0.26 0.74 0.74 100 1011.8
20260507154008 55 0 0.0 7.0 0.23 0.70 0.69 100 1011.8
20260507153507 55 0 0.0 7.0 0.21 0.68 0.68 100 1011.8
20260507152507 55 0 0.0 8.7 0.14 0.60 0.61 97 1012.1
20260507152007 56 0 0.0 8.7 0.11 0.59 0.59 97 1012.0
20260507151506 56 0 0.0 8.7 0.09 0.56 0.56 100 1011.8
20260507151007 57 0 0.0 8.7 0.07 0.55 0.55 100 1011.7
20260507150507 57 0 0.0 8.7 0.02 0.50 0.50 100 1011.7
20260507145507 57 0 0.0 5.2 0.00 0.47 0.47 100 1011.8
20260507145007 58 0 0.0 5.2 0.02 0.47 0.47 100 1011.7
20260507144507 58 0 0.0 5.2 0.02 0.47 0.47 100 1011.6
20260507144007 58 0 0.0 5.2 0.02 0.47 0.47 100 1011.6
20260507143507 59 0 0.0 5.2 0.02 0.47 0.47 97 1011.4
20260507142507 59 0 0.0 5.2 0.05 0.47 0.47 100 1011.3
20260507142007 60 0 0.0 5.2 0.05 0.47 0.47 100 1011.1
20260507141007 60 0 0.0 3.5 0.07 0.47 0.47 100 1011.3
20260507140507 60 0 0.0 1.7 0.07 0.47 0.47 100 1011.2
20260507140010 61 0 0.0 1.7 0.07 0.47 0.47 100 1011.2
20260507135007 61 0 0.0 3.5 0.06 0.44 0.44 100 1011.1
20260507134507 61 0 0.0 3.5 0.06 0.44 0.44 100 1011.1
20260507134007 62 0 0.0 1.7 0.06 0.44 0.44 100 1011.1
20260507133507 62 0 0.0 5.2 0.06 0.44 0.44 100 1011.0
20260507133007 62 0 0.0 5.2 0.06 0.43 0.43 100 1011.1
20260507132007 62 0 0.0 5.2 0.07 0.43 0.43 100 1011.0
20260507131507 62 0 0.0 7.0 0.10 0.41 0.41 100 1010.9
20260507131007 62 0 0.0 7.0 0.10 0.40 0.40 100 1011.3
20260507130010 63 0 0.0 3.5 0.14 0.40 0.40 97 1011.3
20260507125507 63 0 0.0 5.2 0.11 0.39 0.38 97 1011.2
20260507125006 63 0 0.0 5.2 0.15 0.39 0.38 97 1011.1
20260507124506 63 0 0.0 5.2 0.17 0.39 0.38 97 1011.2
20260507124006 64 0 0.0 5.2 0.19 0.39 0.38 97 1011.0
20260507123506 64 0 0.0 5.2 0.19 0.39 0.38 96 1011.0
20260507123008 64 0 0.0 5.2 0.17 0.38 0.37 96 1011.1
20260507122506 64 0 0.0 5.2 0.24 0.35 0.35 96 1011.6
20260507121507 65 355 1.7 7.0 0.21 0.31 0.31 96 1011.2
20260507120506 67 345 1.7 8.7 0.19 0.28 0.28 97 1011.0
20260507120010 67 0 0.0 3.5 0.17 0.26 0.27 97 1010.7
20260507115507 67 0 0.0 1.7 0.17 0.26 0.27 97 1010.8
20260507115007 67 0 0.0 1.7 0.16 0.24 0.24 97 1010.7
20260507114507 68 0 0.0 1.7 0.17 0.21 0.21 97 1010.8
20260507114007 68 0 0.0 0.0 0.17 0.19 0.19 96 1010.6
20260507113506 68 0 0.0 0.0 0.19 0.19 0.19 96 1010.5
20260507111507 68 0 0.0 0.0 0.10 0.10 0.10 94 1010.5
20260507110507 68 0 0.0 0.0 0.09 0.09 0.09 94 1010.5
20260507105507 68 0 0.0 3.5 0.09 0.09 0.09 92 1010.7
20260507105006 69 0 0.0 3.5 0.07 0.07 0.07 92 1010.6
20260507104507 69 0 0.0 3.5 0.02 0.02 0.03 91 1010.5
20260507104006 69 0 0.0 3.5 0.00 0.00 0.00 90 1010.5
20260507103008 69 0 0.0 3.5 0.00 0.00 0.00 88 1010.3
20260507102507 69 0 0.0 3.5 0.00 0.00 0.00 88 1010.1
20260507102007 70 0 0.0 3.5 0.00 0.00 0.00 87 1010.0
20260507101507 70 0 0.0 7.0 0.00 0.00 0.00 86 1009.8
20260507101007 70 0 0.0 7.0 0.00 0.00 0.00 86 1009.7
20260507100506 70 228 1.7 5.2 0.00 0.00 0.00 86 1009.7
20260507100009 70 0 0.0 5.2 0.00 0.00 0.00 85 1009.6
20260507095507 70 215 1.7 3.5 0.00 0.00 0.00 85 1009.7
20260507095007 70 0 0.0 5.2 0.00 0.00 0.00 85 1009.6
20260507094507 70 0 0.0 5.2 0.00 0.00 0.00 85 1009.5
20260507094006 70 0 0.0 5.2 0.00 0.00 0.00 85 1009.4
20260507093008 70 0 0.0 3.5 0.00 0.00 0.00 85 1009.4
20260507092507 70 0 0.0 7.0 0.00 0.00 0.00 85 1009.3
20260507092006 70 0 0.0 7.0 0.00 0.00 0.00 84 1009.7
20260507091507 70 0 0.0 3.5 0.00 0.00 0.00 84 1009.6
20260507090507 70 263 1.7 8.7 0.00 0.00 0.00 84 1009.8
20260507090010 70 0 0.0 7.0 0.00 0.00 0.00 84 1009.8
20260507085506 70 204 1.7 5.2 0.00 0.00 0.00 84 1009.7
20260507085007 70 0 0.0 3.5 0.00 0.00 0.00 84 1009.9
20260507084507 70 0 0.0 3.5 0.00 0.00 0.00 83 1009.8
20260507084006 70 0 0.0 3.5 0.00 0.00 0.00 83 1009.9
20260507083507 70 0 0.0 3.5 0.00 0.00 0.00 83 1010.1
20260507083008 70 0 0.0 3.5 0.00 0.00 0.00 83 1010.1
20260507082507 70 0 0.0 3.5 0.00 0.00 0.00 83 1010.1
20260507082006 70 0 0.0 7.0 0.00 0.00 0.00 83 1010.2
20260507081507 70 0 0.0 7.0 0.00 0.00 0.00 83 1010.3
20260507081007 70 259 1.7 7.0 0.00 0.00 0.00 83 1010.3
20260507075507 70 0 0.0 1.7 0.00 0.00 0.00 83 1010.5
20260507075007 70 0 0.0 3.5 0.00 0.00 0.00 83 1010.4
20260507074007 70 0 0.0 5.2 0.00 0.00 0.00 83 1010.3
20260507073507 70 0 0.0 7.0 0.00 0.00 0.00 83 1010.4
20260507073007 70 242 1.7 7.0 0.00 0.00 0.00 82 1010.4
20260507072507 70 0 0.0 7.0 0.00 0.00 0.00 82 1010.3
20260507071507 70 0 0.0 3.5 0.00 0.00 0.00 82 1010.0
20260507071007 70 215 1.7 3.5 0.00 0.00 0.00 82 1010.3
20260507070507 70 0 0.0 3.5 0.00 0.00 0.00 82 1010.2
20260507070012 70 0 0.0 1.7 0.00 0.00 0.00 81 1010.0
20260507065506 70 0 0.0 3.5 0.00 0.00 0.00 81 1009.8
20260507065006 70 0 0.0 3.5 0.00 0.00 0.00 80 1009.7
20260507064506 70 0 0.0 5.2 0.00 0.00 0.00 80 1009.5
20260507063507 70 0 0.0 3.5 0.00 0.00 0.00 79 1009.4
20260507063007 70 0 0.0 5.2 0.00 0.00 0.00 79 1010.1
20260507062507 71 0 0.0 5.2 0.00 0.00 0.00 78 1010.4
20260507062007 71 0 0.0 3.5 0.00 0.00 0.00 78 1010.8
20260507061507 71 0 0.0 3.5 0.00 0.00 0.00 77 1010.9
20260507060506 71 0 0.0 3.5 0.00 0.00 0.00 75 1011.1
20260507060010 71 0 0.0 3.5 0.00 0.00 0.00 74 1011.3
20260507055006 72 0 0.0 5.2 0.00 0.00 0.00 72 1011.1
20260507054007 72 0 0.0 5.2 0.00 0.00 0.00 71 1011.2
20260507053507 73 0 0.0 7.0 0.00 0.00 0.00 70 1011.2
20260507052507 73 193 1.7 5.2 0.00 0.00 0.00 68 1011.3
20260507052007 73 0 0.0 3.5 0.00 0.00 0.00 68 1011.3
20260507051507 73 0 0.0 3.5 0.00 0.00 0.00 67 1011.1
20260507051007 73 0 0.0 5.2 0.00 0.00 0.00 66 1011.1
20260507050506 73 0 0.0 5.2 0.00 0.00 0.00 66 1011.2
20260507050009 73 0 0.0 5.2 0.00 0.00 0.00 66 1011.0
20260507045507 73 192 1.7 5.2 0.00 0.00 0.00 65 1010.9
20260507044506 73 0 0.0 7.0 0.00 0.00 0.00 65 1011.0
20260507044007 73 0 0.0 7.0 0.00 0.00 0.00 64 1011.2
20260507043507 73 284 1.7 7.0 0.00 0.00 0.00 64 1011.2
20260507043007 74 0 0.0 7.0 0.00 0.00 0.00 64 1011.2
20260507042507 74 0 0.0 7.0 0.00 0.00 0.00 63 1011.3
20260507042006 74 0 0.0 7.0 0.00 0.00 0.00 63 1011.1
20260507041507 74 0 0.0 7.0 0.00 0.00 0.00 63 1011.2
20260507041007 74 0 0.0 7.0 0.00 0.00 0.00 63 1011.0
20260507040507 74 0 0.0 8.7 0.00 0.00 0.00 63 1010.9
20260507035507 74 207 1.7 5.2 0.00 0.00 0.00 63 1010.7
20260507035006 74 0 0.0 5.2 0.00 0.00 0.00 63 1010.7
20260507034006 74 0 0.0 5.2 0.00 0.00 0.00 63 1010.8
20260507033008 75 182 1.7 7.0 0.00 0.00 0.00 63 1010.6
20260507032507 75 0 0.0 5.2 0.00 0.00 0.00 63 1010.5
20260507032006 75 0 0.0 8.7 0.00 0.00 0.00 63 1010.7
20260507031507 75 0 0.0 8.7 0.00 0.00 0.00 64 1010.8
20260507031006 75 0 0.0 7.0 0.00 0.00 0.00 64 1011.0
20260507030507 75 0 0.0 7.0 0.00 0.00 0.00 65 1010.9
20260507030010 75 0 0.0 7.0 0.00 0.00 0.00 65 1010.8
20260507025507 75 0 0.0 5.2 0.00 0.00 0.00 65 1011.0
20260507024507 76 0 0.0 5.2 0.00 0.00 0.00 65 1010.8
20260507024007 76 0 0.0 3.5 0.00 0.00 0.00 64 1010.9
20260507023007 76 0 0.0 3.5 0.00 0.00 0.00 64 1011.1
20260507022507 76 0 0.0 3.5 0.00 0.00 0.00 65 1011.2
20260507022007 76 0 0.0 7.0 0.00 0.00 0.00 65 1011.0
20260507021506 76 0 0.0 7.0 0.00 0.00 0.00 65 1011.0
20260507021007 77 0 0.0 3.5 0.00 0.00 0.00 65 1011.1
20260507020506 77 0 0.0 7.0 0.00 0.00 0.00 65 1011.2
20260507015507 77 0 0.0 5.2 0.00 0.00 0.00 65 1011.4
20260507015007 77 209 1.7 5.2 0.00 0.00 0.00 65 1011.3
20260507014507 77 0 0.0 5.2 0.00 0.00 0.00 65 1011.2
20260507014007 77 0 0.0 5.2 0.00 0.00 0.00 65 1011.2
20260507013506 77 0 0.0 3.5 0.00 0.00 0.00 66 1011.2
20260507013007 77 0 0.0 8.7 0.00 0.00 0.00 66 1011.3
20260507012507 77 0 0.0 8.7 0.00 0.00 0.00 66 1011.3
20260507012006 77 0 0.0 5.2 0.00 0.00 0.00 66 1011.3
20260507011007 77 0 0.0 7.0 0.00 0.00 0.00 66 1011.3
20260507010507 77 0 0.0 5.2 0.00 0.00 0.00 66 1011.2
20260507010010 78 0 0.0 3.5 0.00 0.00 0.00 66 1011.3
20260507005006 78 0 0.0 5.2 0.00 0.00 0.00 66 1011.3
20260507004506 78 0 0.0 7.0 0.00 0.00 0.00 66 1011.3
20260507003506 78 0 0.0 0.0 0.00 0.00 0.00 65 1011.0
20260507003007 78 0 0.0 3.5 0.00 0.00 0.00 65 1011.1
20260507002007 78 0 0.0 5.2 0.00 0.00 0.00 64 1011.0
20260507001507 78 0 0.0 0.0 0.00 0.00 0.00 64 1010.8
20260507001007 78 0 0.0 0.0 0.00 0.00 0.00 63 1010.8
20260507000010 78 0 0.0 1.7 0.00 0.00 0.00 63 1010.8
20260506235007 79 0 0.0 7.0 0.00 0.00 0.00 62 1010.8
20260506234506 79 0 0.0 5.2 0.00 0.00 0.00 61 1010.5
20260506234007 79 0 0.0 5.2 0.00 0.00 0.00 60 1010.5
20260506233506 79 0 0.0 3.5 0.00 0.00 0.00 60 1010.5
20260506233007 79 0 0.0 3.5 0.00 0.00 0.00 59 1010.5
20260506232507 79 0 0.0 0.0 0.00 0.00 0.00 59 1010.4
20260506232006 79 0 0.0 0.0 0.00 0.00 0.00 58 1010.4
20260506231006 80 0 0.0 0.0 0.00 0.00 0.00 57 1010.5
20260506230507 80 0 0.0 0.0 0.00 0.00 0.00 57 1010.5
20260506225007 80 0 0.0 5.2 0.00 0.00 0.00 56 1010.3
20260506224506 80 0 0.0 5.2 0.00 0.00 0.00 56 1010.3
20260506224007 80 0 0.0 3.5 0.00 0.00 0.00 56 1010.4
20260506223007 80 0 0.0 0.0 0.00 0.00 0.00 56 1010.2
20260506222506 80 0 0.0 8.7 0.00 0.00 0.00 56 1010.4
20260506222007 80 0 0.0 8.7 0.00 0.00 0.00 56 1010.3
20260506221006 80 0 0.0 3.5 0.00 0.00 0.00 56 1010.3
20260506220507 80 0 0.0 3.5 0.00 0.00 0.00 56 1010.3
20260506220009 80 0 0.0 9.6 0.00 0.00 0.00 56 1010.5
20260506215507 80 0 0.0 9.6 0.00 0.00 0.00 56 1010.4
20260506215007 80 0 0.0 9.6 0.00 0.00 0.00 56 1010.3
20260506214006 80 0 0.0 5.2 0.00 0.00 0.00 55 1010.0
20260506213507 80 0 0.0 8.7 0.00 0.00 0.00 55 1010.0
20260506213007 80 0 0.0 8.7 0.00 0.00 0.00 55 1010.1
20260506212507 80 0 0.0 9.6 0.00 0.00 0.00 54 1010.1
20260506212007 80 0 0.0 9.6 0.00 0.00 0.00 54 1010.2
20260506211506 80 0 0.0 9.6 0.00 0.00 0.00 54 1010.4
20260506211007 80 0 0.0 9.6 0.00 0.00 0.00 54 1010.3
20260506210507 80 0 0.0 9.6 0.00 0.00 0.00 54 1010.6